Location: Newark
(49.9458°N, 1.9283°E)
Time: 00:29:26
(UTC+00:00)

ISS - Visible Passes

Search period start: 02 April 2020 00:00
Search period end: 12 April 2020 00:00
Orbit: 416 x 423 km, 51.6° (Epoch: 02 April)

Date Brightness Start Highest point End Pass type
(mag) Time Alt. Az. Time Alt. Az. Time Alt. Az.
02 Apr -2.6 19:47:27 10° W 19:50:34 35° SSW 19:52:19 20° SSE visible
03 Apr -3.1 18:59:57 10° WNW 19:03:13 49° SSW 19:06:28 10° SE visible
03 Apr -1.1 20:38:24 10° WSW 20:39:24 11° SW 20:39:54 11° SW visible
04 Apr -1.4 19:49:57 10° W 19:52:11 17° SW 19:54:24 10° S visible
05 Apr -1.8 19:02:08 10° W 19:04:55 24° SW 19:07:41 10° SSE visible
07 Apr -0.8 19:05:25 10° WSW 19:06:22 11° SW 19:07:21 10° SSW visible
